[[{"header":{"parameterUnit":"m.s-1","parameterCategory":1,"la1":30.2991,"la2":30.254,"lo1":-89.0895,"lo2":-89.0444,"dy":0.0017,"dx":0.0017,"nx":28,"ny":28,"refTime":"2024-12-20T03:00:00:Z","depth":0,"parameterNumber":2,"parameterNumberName":"U-component_of_WINDS"},"data":[0,0,0,0,0,0,0,0,0,0,0,0,0,0,0,0,0,0,0,0,0,0,0,0,0,0,0,0,0,0,0,0,0,0,0,0,0,0,0,0,0,0,0,0,0,0,0,0,0,0,0,0,0,0,0,0,0,0,-1.1829,-1.183,0,-1.1875,-1.1875,-1.1876,-1.1819,-1.1817,-1.1815,-1.1813,-1.1862,-1.1865,-1.1868,0,0,0,0,0,0,0,0,0,0,0,0,0,-1.1692,-1.1695,-1.1829,-1.183,-1.183,-1.1875,-1.1876,-1.1876,-1.1819,-1.1817,-1.1814,-1.1812,-1.1861,-1.1864,-1.1868,0,0,0,0,0,0,0,0,0,0,0,0,0,-1.1747,-1.1696,-1.1829,-1.1807,-1.1805,-1.1875,-1.1876,-1.1876,-1.182,-1.1816,-1.1813,-1.181,-1.1859,-1.1864,-1.1869,-1.1962,0,0,-1.1884,-1.1886,0,0,0,0,0,0,0,0,-1.1744,-1.1752,-1.181,-1.1809,-1.1807,-1.1838,-1.1845,-1.1905,-1.182,-1.1814,-1.1812,-1.1809,-1.1856,-1.1861,-1.1877,-1.1965,-1.1967,-1.1884,-1.1887,-1.1889,-1.1891,0,0,0,0,0,0,0,-1.174,-1.1749,-1.1847,-1.1811,-1.1809,-1.1795,-1.1799,-1.1856,-1.1853,-1.1815,-1.1811,-1.1817,-1.1855,-1.1872,-1.1878,-1.1968,-1.1884,-1.1889,-1.1892,-1.1893,-1.2133,-1.2137,0,0,0,0,0,0,-1.1738,-1.1747,-1.1846,-1.1849,-1.1767,-1.18,-1.1805,-1.1831,-1.1852,-1.1852,-1.1819,-1.1814,-1.1866,-1.1872,-1.1879,-1.199,-1.1889,-1.1894,-1.1897,-1.213,-1.2134,-1.2138,0,0,0,0,0,0,-1.1736,-1.1748,-1.1844,-1.1796,-1.1808,-1.1806,-1.1836,-1.1834,-1.1851,-1.1855,-1.1854,-1.1838,-1.1863,-1.1872,-1.1942,-1.1991,-1.1896,-1.1901,-1.2126,-1.2131,-1.2136,-1.2213,0,0,0,0,0,0,-1.1732,-1.1747,-1.1783,-1.1798,-1.181,-1.1906,-1.1839,-1.1837,-1.1859,-1.1853,-1.1872,-1.1873,-1.1862,-1.1935,-1.1947,-1.1996,-1.1904,-1.2122,-1.2128,-1.2134,-1.2206,-1.222,-1.2232,0,0,0,0,0,-1.1727,-1.1803,-1.1785,-1.1797,-1.1855,-1.1909,-1.1916,-1.1901,-1.1864,-1.1899,-1.1902,-1.1872,-1.1983,-1.1942,-1.1955,-1.2007,-1.2118,-1.2126,-1.2134,-1.22,-1.2217,-1.2232,0,0,0,0,0,0,-1.1796,-1.1805,-1.1785,-1.1868,-1.1888,-1.1899,-1.1944,-1.192,-1.1952,-1.1945,-1.1925,-1.193,-1.2004,-1.2012,-1.1966,-1.2098,-1.2045,-1.2055,-1.2091,-1.2107,-1.212,-1.2117,-1.1909,0,0,0,0,0,-1.182,-1.1863,-1.1869,-1.1941,-1.1952,-1.1946,-1.197,-1.1956,-1.1976,-1.1985,-1.1993,-1.2014,-1.2053,-1.208,-1.2117,-1.2206,-1.2209,-1.2247,-1.226,-1.2271,-1.2281,-1.2328,-1.2345,-1.2163,-1.2163,-1.2163,0,0,-1.1872,-1.1882,-1.191,-1.1955,-1.1969,-1.2014,-1.1954,-1.2005,-1.2038,-1.1993,-1.2059,-1.2065,-1.2087,-1.2167,-1.2202,-1.2176,-1.2332,-1.2281,-1.2289,-1.2294,-1.2338,-1.2355,-1.2371,-1.2168,-1.2167,-1.2167,0,0,-1.1989,-1.2,-1.2062,-1.2077,-1.2098,-1.2094,-1.2108,-1.2123,-1.2125,-1.2191,-1.2158,-1.2197,-1.2265,-1.2283,-1.23,-1.2421,-1.2395,-1.2434,-1.2503,-1.2549,-1.2563,-1.2576,-1.262,-1.2636,-1.2443,-1.2444,-1.2444,0,-1.205,-1.2117,-1.2097,-1.215,-1.217,-1.213,-1.2192,-1.2207,-1.224,-1.2256,-1.2225,-1.2309,-1.2321,-1.2404,-1.2434,-1.2449,-1.2466,-1.2433,-1.2563,-1.2575,-1.2587,-1.2628,-1.2645,-1.2448,-1.2448,-1.2447,-1.2447,0,-1.2192,-1.2238,-1.2285,-1.2317,-1.2342,-1.2399,-1.2389,-1.2417,-1.24,-1.2399,-1.2466,-1.2478,-1.2517,-1.2535,-1.252,-1.2616,-1.2598,-1.2565,-1.2512,-1.2609,-1.2648,-1.2663,-1.2455,-1.2453,-1.2452,-1.2451,0,0,-1.2356,-1.2374,-1.2392,-1.2405,-1.2425,-1.246,-1.2515,-1.2551,-1.2576,-1.2599,-1.2645,-1.2703,-1.2672,-1.2692,-1.2679,-1.2719,-1.2814,-1.2681,-1.2681,-1.2706,-1.2921,-1.2946,-1.2965,-1.2796,-1.2799,-1.2801,-1.2919,0,-1.2473,-1.2568,-1.2551,-1.2643,-1.2686,-1.2647,-1.2694,-1.2712,-1.2711,-1.2747,-1.2746,-1.2788,-1.2743,-1.2755,-1.2793,-1.2795,-1.2857,-1.2786,-1.2839,-1.2841,-1.2837,-1.2985,-1.3013,-1.3124,-1.2934,-1.2936,-1.2938,0,-1.2624,-1.2652,-1.2748,-1.276,-1.2777,-1.2821,-1.2852,-1.2887,-1.2905,-1.2901,-1.2923,-1.2901,-1.2955,-1.2899,-1.2974,-1.2925,-1.2946,-1.2949,-1.2953,-1.2959,-1.2897,-1.2997,-1.3159,-1.3176,-1.2962,-1.296,-1.2958,0,-1.2735,-1.2797,-1.2862,-1.2875,-1.289,-1.2921,-1.2929,-1.2944,-1.2966,-1.2994,-1.3008,-1.3042,-1.306,-1.3087,-1.3074,-1.3034,-1.3151,-1.3094,-1.3151,-1.3151,-1.3179,-1.3178,-1.3348,-1.319,-1.3189,-1.3189,-1.3189,0,-1.287,-1.2931,-1.2912,-1.2953,-1.3019,-1.2998,-1.3065,-1.3068,-1.3081,-1.3121,-1.3089,-1.3128,-1.3108,-1.3145,-1.3135,-1.3199,-1.3207,-1.3206,-1.3203,-1.321,-1.321,-1.3225,-1.3217,-1.3193,-1.3192,-1.3192,-1.3191,0,-1.3006,-1.2996,-1.3065,-1.3073,-1.3076,-1.3125,-1.3132,-1.317,-1.3165,-1.3217,-1.3227,-1.3221,-1.3263,-1.3252,-1.3298,-1.3291,-1.3372,-1.3358,-1.3366,-1.3363,-1.342,-1.3416,-1.3607,-1.3632,-1.3456,-1.3458,-1.3459,0,-1.3094,-1.3139,-1.3152,-1.3176,-1.3186,-1.3226,-1.3248,-1.3228,-1.3253,-1.3276,-1.3311,-1.335,-1.338,-1.3448,-1.3448,-1.3482,-1.347,-1.3535,-1.3475,-1.3481,-1.3472,-1.347,-1.3475,-1.3548,-1.355,-1.3551,-1.3552,0,-1.325,-1.3242,-1.3276,-1.3307,-1.3335,-1.3359,-1.338,-1.3401,-1.3383,-1.3412,-1.3454,-1.3477,-1.3523,-1.3562,-1.3593,-1.3601,-1.3574,-1.3571,-1.3586,-1.3594,-1.3597,-1.3597,-1.34,-1.3567,-1.3566,-1.3565,-1.3564,-1.3563,-1.3365,-1.3404,-1.3418,-1.3456,-1.3469,-1.3489,-1.3525,-1.3524,-1.3559,-1.3594,-1.358,-1.3628,-1.3643,-1.3682,-1.3694,-1.3731,-1.3707,-1.3728,-1.3734,-1.374,-1.3748,-1.359,-1.3737,-1.3736,-1.3736,-1.3735,-1.3735,0,-1.3521,-1.3528,-1.3563,-1.3592,-1.3622,-1.3592,-1.3613,-1.3641,-1.3683,-1.3699,-1.3729,-1.3776,-1.3813,-1.3815,-1.3849,-1.3879,-1.3867,-1.3889,-1.3887,-1.3889,-1.3767,-1.3751,-1.3897,-1.3897,-1.3897,-1.3897,-1.3897,-1.3897,-1.3606,-1.3669,-1.3663,-1.3732,-1.3738,-1.3784,-1.3799,-1.3817,-1.383,-1.3884,-1.3914,-1.3915,-1.3925,-1.396,-1.3992,-1.3991,-1.4006,-1.4032,-1.4027,-1.3914,-1.3898,-1.3883,-1.3868,-1.4035,-1.4036,-1.4146,-1.4147,-1.4148]},{"header":{"parameterUnit":"m.s-1","parameterCategory":1,"la1":30.2991,"la2":30.254,"lo1":-89.0895,"lo2":-89.0444,"dy":0.0017,"dx":0.0017,"nx":28,"ny":28,"refTime":"2024-12-20T03:00:00:Z","depth":0,"parameterNumber":3,"parameterNumberName":"V-component_of_WINDS"},"data":[0,0,0,0,0,0,0,0,0,0,0,0,0,0,0,0,0,0,0,0,0,0,0,0,0,0,0,0,0,0,0,0,0,0,0,0,0,0,0,0,0,0,0,0,0,0,0,0,0,0,0,0,0,0,0,0,0,0,-7.2666,-7.2668,0,-7.2816,-7.2818,-7.2819,-7.2729,-7.2725,-7.2721,-7.2716,-7.2864,-7.2872,-7.2879,0,0,0,0,0,0,0,0,0,0,0,0,0,-7.2294,-7.2302,-7.2666,-7.2668,-7.267,-7.2816,-7.2818,-7.282,-7.273,-7.2725,-7.2719,-7.2715,-7.2861,-7.2871,-7.288,0,0,0,0,0,0,0,0,0,0,0,0,0,-7.2451,-7.2304,-7.2666,-7.2643,-7.2642,-7.2815,-7.2818,-7.282,-7.2731,-7.2725,-7.2718,-7.2712,-7.2858,-7.287,-7.2882,-7.3084,0,0,-7.2918,-7.2923,0,0,0,0,0,0,0,0,-7.2442,-7.2465,-7.2644,-7.2645,-7.2644,-7.2747,-7.2741,-7.2909,-7.2733,-7.2697,-7.2716,-7.2709,-7.283,-7.2844,-7.2886,-7.3091,-7.3097,-7.2919,-7.2926,-7.2931,-7.2935,0,0,0,0,0,0,0,-7.2432,-7.2458,-7.2725,-7.2647,-7.2647,-7.2622,-7.2638,-7.2772,-7.2798,-7.27,-7.2693,-7.2713,-7.2829,-7.2875,-7.2889,-7.31,-7.2919,-7.2929,-7.2937,-7.2941,-7.3476,-7.3483,0,0,0,0,0,0,-7.2423,-7.2449,-7.272,-7.273,-7.2526,-7.2634,-7.2651,-7.2721,-7.2796,-7.2801,-7.2718,-7.2708,-7.2858,-7.2875,-7.2894,-7.3135,-7.2931,-7.2942,-7.2949,-7.3469,-7.3477,-7.3485,0,0,0,0,0,0,-7.2416,-7.2448,-7.2714,-7.2588,-7.262,-7.2648,-7.2726,-7.2727,-7.2773,-7.281,-7.2813,-7.2761,-7.2853,-7.2877,-7.3037,-7.3138,-7.2948,-7.2959,-7.3461,-7.3472,-7.3481,-7.3619,0,0,0,0,0,0,-7.2406,-7.2446,-7.2525,-7.2591,-7.2627,-7.2858,-7.2733,-7.2735,-7.2795,-7.2783,-7.2851,-7.2856,-7.285,-7.302,-7.3049,-7.3151,-7.2968,-7.3452,-7.3465,-7.3478,-7.3606,-7.3633,-7.3657,0,0,0,0,0,-7.2393,-7.2557,-7.253,-7.2563,-7.2727,-7.2864,-7.2885,-7.2876,-7.2803,-7.2882,-7.2905,-7.2854,-7.3123,-7.3037,-7.3069,-7.3177,-7.3445,-7.3462,-7.3477,-7.3594,-7.3628,-7.3656,0,0,0,0,0,0,-7.2502,-7.2565,-7.2536,-7.2727,-7.2791,-7.2849,-7.2948,-7.2912,-7.2997,-7.2982,-7.2965,-7.2982,-7.3149,-7.3178,-7.3082,-7.3375,-7.3272,-7.3295,-7.335,-7.3383,-7.3408,-7.3397,-7.2978,0,0,0,0,0,-7.2548,-7.2657,-7.2706,-7.2869,-7.2903,-7.2921,-7.298,-7.2968,-7.3033,-7.3059,-7.3094,-7.3157,-7.3255,-7.332,-7.3413,-7.3609,-7.3622,-7.3699,-7.3724,-7.3745,-7.3765,-7.3869,-7.3903,-7.3537,-7.3537,-7.3537,0,0,-7.2645,-7.2693,-7.2762,-7.2893,-7.2941,-7.3051,-7.2944,-7.3065,-7.3146,-7.3076,-7.3231,-7.3259,-7.3328,-7.3507,-7.3587,-7.3537,-7.3869,-7.3765,-7.3781,-7.379,-7.3889,-7.3924,-7.3954,-7.3548,-7.3546,-7.3544,0,0,-7.2878,-7.2926,-7.3067,-7.3118,-7.3193,-7.3203,-7.3237,-7.3301,-7.3317,-7.3472,-7.3421,-7.3516,-7.3686,-7.3737,-7.3785,-7.4036,-7.3992,-7.4067,-7.42,-7.4302,-7.433,-7.4356,-7.4444,-7.4476,-7.4086,-7.4087,-7.4087,0,-7.2988,-7.3155,-7.3144,-7.327,-7.3328,-7.3271,-7.3412,-7.3461,-7.3562,-7.3602,-7.3544,-7.3756,-7.3798,-7.3988,-7.4049,-7.4091,-7.4127,-7.4059,-7.4328,-7.4353,-7.4376,-7.446,-7.4494,-7.4095,-7.4094,-7.4094,-7.4093,0,-7.3286,-7.3402,-7.3507,-7.3608,-7.3677,-7.381,-7.3817,-7.3888,-7.3869,-7.3885,-7.4042,-7.4091,-7.4192,-7.4235,-7.4218,-7.4422,-7.4388,-7.433,-7.4225,-7.442,-7.4499,-7.4531,-7.4108,-7.4105,-7.4102,-7.41,0,0,-7.3593,-7.3685,-7.3724,-7.3768,-7.3846,-7.3935,-7.4064,-7.4164,-7.4225,-7.4296,-7.4402,-7.4547,-7.4493,-7.4548,-7.4535,-7.4624,-7.4818,-7.4554,-7.4555,-7.4601,-7.5045,-7.5088,-7.5126,-7.4789,-7.4795,-7.48,-7.5039,0,-7.383,-7.4058,-7.4051,-7.4263,-7.4369,-7.4315,-7.4427,-7.4486,-7.4504,-7.4594,-7.4612,-7.4715,-7.4636,-7.4669,-7.4755,-7.4777,-7.4907,-7.4759,-7.4886,-7.4891,-7.4871,-7.5167,-7.5214,-7.5437,-7.5069,-7.5075,-7.5078,0,-7.4137,-7.422,-7.4443,-7.4504,-7.4548,-7.465,-7.474,-7.4829,-7.4893,-7.4899,-7.496,-7.4932,-7.506,-7.4953,-7.5128,-7.5028,-7.5079,-7.5097,-7.5105,-7.5117,-7.4996,-7.5186,-7.5508,-7.5541,-7.5127,-7.5123,-7.5119,0,-7.4337,-7.4504,-7.4659,-7.4699,-7.4774,-7.4846,-7.4881,-7.4939,-7.4999,-7.5078,-7.5116,-7.5208,-7.5258,-7.5329,-7.5325,-7.5248,-7.5503,-7.5395,-7.5509,-7.551,-7.5565,-7.5562,-7.59,-7.56,-7.5599,-7.5598,-7.5598,0,-7.4603,-7.4741,-7.475,-7.4845,-7.4997,-7.4987,-7.5137,-7.5163,-7.5216,-7.5313,-7.5271,-7.5363,-7.5354,-7.5445,-7.5443,-7.5588,-7.5611,-7.5618,-7.5615,-7.5622,-7.5621,-7.5654,-7.5639,-7.5607,-7.5605,-7.5603,-7.5602,0,-7.4852,-7.4864,-7.5029,-7.5087,-7.5105,-7.5214,-7.5263,-7.5352,-7.5365,-7.5489,-7.5517,-7.5537,-7.5643,-7.5647,-7.5768,-7.5766,-7.5942,-7.5923,-7.5922,-7.5918,-7.6032,-7.6021,-7.6403,-7.6452,-7.612,-7.6123,-7.6126,0,-7.5021,-7.5126,-7.5196,-7.5259,-7.5298,-7.54,-7.5462,-7.5455,-7.552,-7.5601,-7.568,-7.5782,-7.5863,-7.6034,-7.6058,-7.615,-7.6132,-7.6259,-7.6145,-7.6148,-7.6133,-7.6127,-7.6136,-7.6282,-7.6285,-7.6288,-7.6291,0,-7.5318,-7.5319,-7.5411,-7.5505,-7.558,-7.5653,-7.5721,-7.5774,-7.5774,-7.585,-7.5959,-7.6022,-7.6146,-7.6247,-7.6336,-7.6368,-7.633,-7.6326,-7.6358,-7.6365,-7.6359,-7.6363,-7.5982,-7.6318,-7.6315,-7.6313,-7.6312,-7.631,-7.5532,-7.5622,-7.5686,-7.5789,-7.5839,-7.5903,-7.599,-7.6014,-7.6105,-7.6207,-7.6196,-7.6317,-7.6376,-7.6492,-7.6531,-7.6623,-7.6579,-7.6625,-7.6636,-7.6647,-7.6659,-7.6345,-7.664,-7.6639,-7.6638,-7.6637,-7.6637,0,-7.5826,-7.5864,-7.5959,-7.6056,-7.6137,-7.6095,-7.6167,-7.6237,-7.6344,-7.6404,-7.6485,-7.6609,-7.6706,-7.6738,-7.6832,-7.69,-7.6884,-7.6924,-7.6919,-7.6927,-7.6694,-7.6657,-7.6935,-7.6935,-7.6935,-7.6935,-7.6935,-7.6935,-7.5989,-7.614,-7.6148,-7.6322,-7.6358,-7.6477,-7.6522,-7.658,-7.6627,-7.6768,-7.685,-7.6871,-7.6918,-7.7015,-7.7102,-7.7109,-7.7145,-7.7193,-7.7192,-7.6973,-7.6943,-7.6915,-7.688,-7.7201,-7.7201,-7.7417,-7.7419,-7.742]}]]